Tiempo atmosférico en la estación meteorológica de San Cristóbal de La Laguna,Llano de los Loros, Santa Cruz de Tenerife (868 m.)



Fecha
DESCASC
Temp. máxima en grados centígrados (hora)
DESCASC
Temp. mínima en grados centígrados (hora)
DESCASC
Temp. media en grados centígrados
DESCASC
Racha de viento máxima en m/sg (hora)
DESCASC
Velocidad máxima media en intervalos de 10 minutos(hora)
DESCASC
Precipitaciones diarias en mm
DESCASC
Precipitaciones de 00:00 a 06:00 en mm
DESCASC
Precipitaciones de 06:00 a 12:00 en mm
DESCASC
Precipitaciones de 12:00 a 18:00 en mm
DESCASC
Precipitaciones de 18:00 a 24:00 en mm
DESCASC
28-02-2021 11.3 (14:40) 7.6 (02:30) 9.5 13.06 (02:40) 6.94 (01:40) 12.6 6 6.2 0.4 0
27-02-2021 9.2 (16:10) 6.7 (04:30) 7.9 13.61 (17:10) 7.78 (17:30) 5.8 1.8 3.4 0.2 0.4
26-02-2021 11.6 (13:50) 7.9 (00:00) 9.8 15 (03:30) 5 (12:50) 1.8 0 0.2 0.2 1.4
25-02-2021 11.3 (11:20) 7.7 (00:00) 9.5 13.61 (03:20) 6.11 (03:50) 26 0.2 14 11.4 0.4
24-02-2021 14.4 (14:40) 10.2 (00:00) 12.3 11.67 (02:30) 7.22 (02:40) 0 0 0 0 0
23-02-2021 20.1 (12:40) 9.2 (00:00) 14.7 10 (22:30) 6.11 (22:20) 0 0 0 0 0
22-02-2021 16.6 (11:10) 8.5 (00:00) 12.6 8.33 (23:30) 5.56 (01:30) 0 0 0 0 0
21-02-2021 15.3 (14:40) 8.6 (00:00) 12 16.39 (00:40) 8.61 (00:40) 5.6 5.6 0 0 0
20-02-2021 19.9 (13:10) 7.8 (00:00) 13.8 19.17 (23:20) 9.17 (23:10) 15.8 0 0 0 15.8
19-02-2021 21.2 (13:30) 7.5 (00:00) 14.4 6.67 (13:30) 3.89 (12:30) 0 0 0 0 0
18-02-2021 19.5 (12:10) 5.5 (00:00) 12.5 7.78 (06:20) 5.56 (06:40) 0 0 0 0 0
17-02-2021 18.5 (12:30) 6.1 (00:00) 12.3 16.39 (02:40) 11.94 (03:00) 0 0 0 0 0
16-02-2021 19.3 (14:10) 9.6 (00:00) 14.4 18.61 (06:00) 13.33 (05:50) 0 0 0 0 0
15-02-2021 22.3 (14:40) 12.3 (00:00) 17.3 15 (23:50) 11.94 (23:59) 0 0 0 0 0
14-02-2021 21.8 (12:20) 8.6 (00:00) 15.2 8.89 (10:20) 5.28 (10:30) 0 0 0 0 0
13-02-2021 18.1 (15:00) 8.1 (00:00) 13.1 11.39 (19:00) 6.94 (19:50) 0.2 0 0.2 0 0
12-02-2021 14.7 (12:50) 10.6 (00:00) 12.7 11.39 (22:50) 5.56 (22:30) 0.2 0 0 0.2 0
11-02-2021 15 (14:00) 9.5 (00:00) 12.3 9.17 (23:30) 4.44 (06:20) 0 0 0 0 0
10-02-2021 19.1 (12:30) 8.2 (00:00) 13.7 6.67 (22:10) 4.44 (22:10) 0 0 0 0 0
09-02-2021 18.6 (14:20) 8.4 (00:00) 13.5 10.83 (00:10) 6.94 (00:20) 0 0 0 0 0
08-02-2021 17.7 (15:20) 8.8 (00:00) 13.3 12.5 (00:10) 9.72 (00:10) 0.6 0 0.4 0 0.2
07-02-2021 12.1 (14:00) 7.9 (00:00) 10 13.89 (00:30) 9.72 (23:20) 0.2 0 0 0.2 0
06-02-2021 10.2 (14:00) 6.5 (00:00) 8.3 16.39 (15:20) 8.06 (09:10) 6.4 1.8 1.4 0.6 2.6
05-02-2021 7.5 (14:40) 4 (00:00) 5.8 18.06 (22:20) 8.33 (23:30) 70.8 12.2 25.4 25 8.2
04-02-2021 10.6 (02:40) 5.3 (00:00) 8 15.83 (20:30) 7.78 (22:10) 49.2 14.6 22 4.2 8.4
03-02-2021 18.9 (11:50) 9.5 (00:00) 14.2 12.5 (23:10) 8.06 (20:40) 0 0 0 0 0
02-02-2021 24.3 (11:30) 10.3 (01:50) 17.3 8.06 (05:50) 5 (05:40) 0 0 0 0 0
01-02-2021 23.3 (13:20) 11.5 (00:00) 17.4 15.28 (08:20) 10.56 (08:10) 0 0 0 0 0
31-01-2021 19.5 (14:20) 10.9 (00:00) 15.2 13.61 (23:20) 8.61 (23:20) 2 1.4 0.6 0 0

Gráficas

Temp. máximas Temp. mínimas Temp. medias Precipitaciones Rachas de viento máximas Velocidades máximas media en intervalos de 10 minutos

Datos horarios

Fecha y hora oficial Temperatura (ºC) Velocidad del viento (km/h) Dirección del viento Racha (km/h) Dirección de racha Precipitación (mm) Presión (hPa) Tendencia (hPa) Humedad (%)
2021-03-01 23:00:00 9.4 6 Noroeste 23 Oeste 0 -- -- 97
2021-03-01 22:00:00 9.6 3 Sudoeste 17 Oeste 0 -- -- 97
2021-03-01 21:00:00 9.6 5 Oeste 26 Norte 0 -- -- 96
2021-03-01 20:00:00 9.6 9 Noroeste 32 Noroeste 0 -- -- 96
2021-03-01 19:00:00 9.8 12 Norte 34 Oeste 0 -- -- 95
2021-03-01 18:00:00 10.2 15 Noroeste 41 Noroeste 0 -- -- 93
2021-03-01 17:00:00 11 19 Noroeste 37 Noroeste 0 -- -- 88
2021-03-01 16:00:00 12 15 Norte 38 Noroeste 0 -- -- 73
2021-03-01 15:00:00 12.1 20 Noroeste 39 Noroeste 0 -- -- 87
2021-03-01 14:00:00 12.5 19 Noroeste 31 Oeste 0 -- -- 83
2021-03-01 13:00:00 12.9 11 Noroeste 31 Noroeste 0 -- -- 86
2021-03-01 12:00:00 10.9 14 Noroeste 35 Noroeste 0 -- -- 92
2021-03-01 11:00:00 10.6 9 Noroeste 27 Oeste 0 -- -- 97
2021-03-01 10:00:00 9.5 8 Norte 32 Norte 0 -- -- 100
2021-03-01 09:00:00 9.2 13 Noroeste 32 Noroeste 0 -- -- 100
2021-03-01 08:00:00 9 10 Noroeste 36 Noroeste 0.2 -- -- 100
2021-03-01 07:00:00 9.5 4 Sur 28 Norte 1.4 -- -- 100
2021-03-01 06:00:00 9.2 8 Noroeste 35 Noroeste 0 -- -- 100
2021-03-01 05:00:00 9.1 18 Noroeste 39 Noroeste 0 -- -- 99
2021-03-01 04:00:00 9.1 17 Noroeste 42 Noroeste 0 -- -- 100
2021-03-01 03:00:00 9.2 20 Noroeste 43 Noroeste 0 -- -- 100
2021-03-01 02:00:00 9.3 15 Noroeste 41 Noroeste 0 -- -- 100
2021-03-01 01:00:00 9.5 11 Norte 40 Noroeste 0 -- -- 100
2021-03-01 00:00:00 9.6 14 Norte 37 Noroeste 0 -- -- 100
2021-02-28 23:00:00 9.5 18 Noroeste 38 Norte 0 -- -- 100
2021-02-28 22:00:00 9.4 14 Norte 38 Noroeste 0 -- -- 100
2021-02-28 21:00:00 9.5 16 Norte 40 Noroeste 0 -- -- 100
2021-02-28 20:00:00 9.5 15 Noroeste 39 Noroeste 0 -- -- 100
2021-02-28 19:00:00 9.4 17 Noroeste 37 Noroeste 0 -- -- 100
2021-02-28 18:00:00 9.6 19 Noroeste 39 Norte 0 -- -- 98
2021-02-28 17:00:00 9.9 21 Noroeste 42 Noroeste 0 -- -- 96
2021-02-28 16:00:00 10.7 17 Noroeste 33 Noroeste 0 -- -- 98
2021-02-28 15:00:00 10.5 15 Noroeste 30 Noroeste 0 -- -- 99
2021-02-28 14:00:00 10.3 9 Noroeste 35 Este 0.2 -- -- 100
2021-02-28 13:00:00 10.1 10 Noroeste 35 Noroeste 0.2 -- -- 100
2021-02-28 12:00:00 9.6 11 Noroeste 35 Noroeste 1 -- -- 100
2021-02-28 11:00:00 9.8 6 Nordeste 32 Noroeste 1 -- -- 100
2021-02-28 10:00:00 9.4 10 Norte 28 Noroeste 0.8 -- -- 100
2021-02-28 09:00:00 9.2 5 Norte 35 Noroeste 2 -- -- 100
2021-02-28 08:00:00 8.8 13 Noroeste 37 Noroeste 1.4 -- -- 100
2021-02-28 07:00:00 8.6 13 Noroeste 31 Noroeste 0 -- -- 100
2021-02-28 06:00:00 8.5 13 Noroeste 42 Noroeste 2.2 -- -- 100
2021-02-28 05:00:00 8.4 15 Noroeste 36 Noroeste 0.4 -- -- 100
2021-02-28 04:00:00 7.9 14 Noroeste 42 Noroeste 1.4 -- -- 100
2021-02-28 03:00:00 7.7 19 Noroeste 47 Noroeste 0.2 -- -- 100
2021-02-28 02:00:00 7.7 22 Noroeste 43 Norte 0 -- -- 100
2021-02-28 01:00:00 8.1 21 Noroeste 46 Noroeste 1.8 -- -- 100
2021-02-28 00:00:00 7.7 21 Noroeste 41 Noroeste 0.4 -- -- 97
2021-02-27 23:00:00 8.2 22 Noroeste 45 Noroeste 0 -- -- 91
2021-02-27 22:00:00 8.1 24 Noroeste 44 Noroeste 0 -- -- 89
2021-02-27 21:00:00 7.8 21 Noroeste 39 Noroeste 0 -- -- 92
2021-02-27 20:00:00 7.8 19 Noroeste 45 Norte 0 -- -- 90
2021-02-27 19:00:00 8.1 24 Noroeste 45 Norte 0 -- -- 89
2021-02-27 18:00:00 8.3 24 Noroeste 49 Norte 0 -- -- 91
2021-02-27 17:00:00 8.8 24 Noroeste 44 Noroeste 0 -- -- 90
2021-02-27 16:00:00 8.8 19 Noroeste 43 Noroeste 0 -- -- 87
2021-02-27 15:00:00 8.7 16 Norte 39 Noroeste 0.2 -- -- 94
2021-02-27 14:00:00 7.6 17 Noroeste 41 Noroeste 0 -- -- 98
2021-02-27 13:00:00 8.2 16 Noroeste 44 Noroeste 0 -- -- 96
2021-02-27 12:00:00 7.7 15 Noroeste 39 Noroeste 1.4 -- -- 100
2021-02-27 11:00:00 7.8 12 Norte 47 Norte 1.2 -- -- 99
2021-02-27 10:00:00 7.7 17 Noroeste 47 Noroeste 0.2 -- -- 97
2021-02-27 09:00:00 7.7 10 Noroeste 41 Noroeste 0 -- -- 96
2021-02-27 08:00:00 7.2 16 Norte 36 Noroeste 0 -- -- 95
2021-02-27 07:00:00 7.2 8 Norte 34 Norte 0.6 -- -- 100
2021-02-27 06:00:00 7.4 13 Noroeste 42 Oeste 0.8 -- -- 99
2021-02-27 05:00:00 7.2 18 Noroeste 42 Noroeste 0 -- -- 91
2021-02-27 04:00:00 7.1 12 Noroeste 36 Oeste 0.2 -- -- 98
2021-02-27 03:00:00 7.5 15 Norte 38 Noroeste 0.8 -- -- 97
2021-02-27 02:00:00 7.3 8 Norte 38 Oeste 0 -- -- 92
2021-02-27 01:00:00 7.9 6 Este 41 Noroeste 0 -- -- 99
2021-02-27 00:00:00 7.9 8 Norte 53 Noroeste 0 -- -- 100
2021-02-26 23:00:00 8.5 7 Oeste 39 Oeste 1 -- -- 100
2021-02-26 22:00:00 8.9 9 Sudoeste 38 Noroeste 0.4 -- -- 97
2021-02-26 21:00:00 8.8 6 Este 40 Noroeste 0 -- -- 96
2021-02-26 20:00:00 8.8 10 Oeste 34 Noroeste 0 -- -- 96
2021-02-26 19:00:00 8.8 9 Sur 36 Norte 0 -- -- 93
2021-02-26 18:00:00 9.3 9 Oeste 38 Noroeste 0 -- -- 92
2021-02-26 17:00:00 10.4 9 Noroeste 43 Noroeste 0 -- -- 84
2021-02-26 16:00:00 10 8 Sudoeste 36 Oeste 0.2 -- -- 89
2021-02-26 15:00:00 10.7 9 Sudoeste 40 Oeste 0 -- -- 84
2021-02-26 14:00:00 11.1 13 Noroeste 43 Noroeste 0 -- -- 80
2021-02-26 13:00:00 10.8 15 Noroeste 45 Noroeste 0 -- -- 82
2021-02-26 12:00:00 9.7 14 Noroeste 46 Noroeste 0 -- -- 87
2021-02-26 11:00:00 11 9 Sudoeste 36 Noroeste 0 -- -- 82
2021-02-26 10:00:00 9.5 10 Noroeste 39 Noroeste 0 -- -- 93
2021-02-26 09:00:00 8.4 14 Noroeste 41 Oeste 0.2 -- -- 96
2021-02-26 08:00:00 8.2 12 Oeste 41 Oeste 0 -- -- 97
2021-02-26 07:00:00 8.1 13 Noroeste 45 Noroeste 0 -- -- 91
2021-02-26 06:00:00 8.2 9 Noroeste 44 Noroeste 0 -- -- 91
2021-02-26 05:00:00 8.4 11 Noroeste 40 Noroeste 0 -- -- 97
2021-02-26 04:00:00 8 13 Noroeste 54 Nordeste 0 -- -- 91
2021-02-26 03:00:00 8.5 13 Noroeste 50 Noroeste 0 -- -- 96
2021-02-26 02:00:00 8.3 15 Noroeste 39 Noroeste 0 -- -- 95
2021-02-26 01:00:00 8.3 9 Oeste 45 Noroeste 0 -- -- 95
2021-02-26 00:00:00 7.9 12 Noroeste 45 Noroeste 0 -- -- 95
2021-02-25 23:00:00 7.7 9 Noroeste 37 Oeste 0 -- -- 98
2021-02-25 22:00:00 8 8 Norte 34 Noroeste 0 -- -- 100
2021-02-25 21:00:00 8.1 9 Norte 34 Noroeste 0 -- -- 100
2021-02-25 20:00:00 8.7 8 Noroeste 31 Noroeste 0.2 -- -- 100
2021-02-25 19:00:00 9.2 10 Noroeste 31 Noroeste 0.2 -- -- 100
2021-02-25 18:00:00 9.7 8 Noroeste 27 Oeste 0 -- -- 100
2021-02-25 17:00:00 10.2 8 Noroeste 30 Nordeste 0 -- -- 100
2021-02-25 16:00:00 10.7 13 Norte 28 Este 0 -- -- 100
2021-02-25 15:00:00 10.1 14 Nordeste 34 Este 2.4 -- -- 100
2021-02-25 14:00:00 10.2 12 Norte 38 Este 3.8 -- -- 100
2021-02-25 13:00:00 10.6 14 Nordeste 43 Nordeste 5.2 -- -- 100
2021-02-25 12:00:00 11 14 Nordeste 41 Este 4.6 -- -- 100
2021-02-25 11:00:00 11.1 9 Este 39 Sudeste 2 -- -- 100
2021-02-25 10:00:00 11 11 Este 42 Nordeste 1.8 -- -- 100
2021-02-25 09:00:00 10.8 10 Nordeste 37 Nordeste 2.8 -- -- 100
2021-02-25 08:00:00 10.6 14 Nordeste 39 Nordeste 1.4 -- -- 100
2021-02-25 07:00:00 11 12 Nordeste 40 Nordeste 1.4 -- -- 100
2021-02-25 06:00:00 11.1 14 Nordeste 33 Este 0.2 -- -- 100
2021-02-25 05:00:00 10.8 17 Nordeste 36 Nordeste 0 -- -- 99
2021-02-25 04:00:00 10.7 17 Norte 49 Nordeste 0 -- -- 99
2021-02-25 03:00:00 10.4 16 Norte 41 Nordeste 0 -- -- 98
2021-02-25 02:00:00 10.5 9 Norte 32 Norte 0 -- -- 98
2021-02-25 01:00:00 10.6 10 Norte 43 Noroeste 0 -- -- 98
2021-02-25 00:00:00 10.6 17 Noroeste 40 Noroeste 0 -- -- 98
2021-02-24 23:00:00 10.6 11 Noroeste 37 Noroeste 0 -- -- 98
2021-02-24 22:00:00 10.9 8 Norte 36 Noroeste 0 -- -- 98
2021-02-24 21:00:00 10.9 8 Sur 42 Nordeste 0 -- -- 98
2021-02-24 20:00:00 11.2 8 Oeste 32 Oeste 0 -- -- 96
2021-02-24 19:00:00 11.5 10 Norte 28 Noroeste 0 -- -- 96
2021-02-24 18:00:00 12.2 13 Norte 33 Norte 0 -- -- 92
2021-02-24 17:00:00 12.9 16 Norte 33 Noroeste 0 -- -- 86
2021-02-24 16:00:00 14.2 15 Norte 31 Noroeste 0 -- -- 79
2021-02-24 15:00:00 13.8 13 Norte 33 Noroeste 0 -- -- 86
2021-02-24 14:00:00 13.5 15 Noroeste 35 Noroeste 0 -- -- 85
2021-02-24 13:00:00 13.4 10 Noroeste 31 Noroeste 0 -- -- 86
2021-02-24 12:00:00 14 10 Noroeste 31 Noroeste 0 -- -- 80
2021-02-24 11:00:00 12.5 8 Norte 41 Oeste 0 -- -- 87
2021-02-24 10:00:00 12 9 Noroeste 38 Noroeste 0 -- -- 87
2021-02-24 09:00:00 10.8 9 Noroeste 28 Este 0 -- -- 92
2021-02-24 08:00:00 10.3 13 Norte 33 Noroeste 0 -- -- 94
2021-02-24 07:00:00 10.2 8 Nordeste 38 Noroeste 0 -- -- 94
2021-02-24 06:00:00 10.4 8 Noroeste 38 Norte 0 -- -- 93
2021-02-24 05:00:00 10.7 13 Noroeste 39 Noroeste 0 -- -- 96
2021-02-24 04:00:00 10.7 12 Noroeste 36 Norte 0 -- -- 96
2021-02-24 03:00:00 10.6 24 Norte 42 Noroeste 0 -- -- 95
2021-02-24 02:00:00 10.4 17 Norte 41 Noroeste 0 -- -- 97
2021-02-24 01:00:00 10.6 17 Norte 35 Noroeste 0 -- -- 98
2021-02-24 00:00:00 10.4 12 Noroeste 35 Noroeste 0 -- -- 96
2021-02-23 23:00:00 10.5 17 Norte 36 Nordeste 0 -- -- 90
2021-02-23 22:00:00 10.7 19 Nordeste 34 Nordeste 0 -- -- 88
2021-02-23 21:00:00 11 12 Norte 23 Norte 0 -- -- 78
2021-02-23 20:00:00 10.8 12 Norte 21 Norte 0 -- -- 80
2021-02-23 19:00:00 11 8 Norte 15 Nordeste 0 -- -- 86
2021-02-23 18:00:00 13 4 Sudeste 10 Norte 0 -- -- 83
2021-02-23 17:00:00 14.3 4 Norte 13 Este 0 -- -- 79
2021-02-23 16:00:00 17.5 8 Sudeste 17 Sudeste 0 -- -- 68
2021-02-23 15:00:00 19.4 10 Sudeste 21 Sudeste 0 -- -- 64
2021-02-23 14:00:00 19.6 12 Sudeste 22 Sudeste 0 -- -- 68
2021-02-23 13:00:00 19.5 12 Sudeste 22 Sudeste 0 -- -- 68
2021-02-23 12:00:00 19.5 12 Sur 22 Sudeste 0 -- -- 67
2021-02-23 11:00:00 18.2 13 Sudeste 25 Este 0 -- -- 70
2021-02-23 10:00:00 16.4 19 Este 28 Este 0 -- -- 72
2021-02-23 09:00:00 14.1 15 Este 27 Este 0 -- -- 81
2021-02-23 08:00:00 10.5 16 Este 26 Sudeste 0 -- -- 93
2021-02-23 07:00:00 9.2 6 Sudeste 19 Nordeste 0 -- -- 93
2021-02-23 06:00:00 9.6 6 Norte 18 Nordeste 0 -- -- 88
2021-02-23 05:00:00 11.1 8 Nordeste 27 Norte 0 -- -- 79
2021-02-23 04:00:00 10.8 17 Norte 27 Nordeste 0 -- -- 91
2021-02-23 03:00:00 10.5 12 Norte 26 Norte 0 -- -- 97
2021-02-23 02:00:00 10.8 18 Norte 27 Norte 0 -- -- 98
2021-02-23 01:00:00 10.8 18 Norte 28 Norte 0 -- -- 100
2021-02-23 00:00:00 11 14 Noroeste 30 Norte 0 -- -- 100
2021-02-22 23:00:00 11.3 3 Noroeste 13 Este 0 -- -- 100
2021-02-22 22:00:00 11.2 4 Noroeste 22 Noroeste 0 -- -- 99
2021-02-22 21:00:00 11 11 Noroeste 25 Norte 0 -- -- 98
2021-02-22 20:00:00 10.8 10 Norte 17 Norte 0 -- -- 98
2021-02-22 19:00:00 11.3 3 Sudoeste 22 Noroeste 0 -- -- 96
2021-02-22 18:00:00 12.4 8 Noroeste 15 Oeste 0 -- -- 89
2021-02-22 17:00:00 15.3 6 Noroeste 14 Oeste 0 -- -- 75
2021-02-22 16:00:00 15 5 Norte 18 Noroeste 0 -- -- 79
2021-02-22 15:00:00 16.6 5 Noroeste 14 Noroeste 0 -- -- 70
2021-02-22 14:00:00 14.6 5 Sudeste 15 Sur 0 -- -- 91
2021-02-22 13:00:00 15.1 8 Sudeste 14 Sur 0 -- -- 88
2021-02-22 12:00:00 14.8 8 Sudeste 15 Sur 0 -- -- 86
2021-02-22 11:00:00 16.1 9 Sudeste 15 Sudeste 0 -- -- 75
2021-02-22 10:00:00 14 4 Oeste 10 Noroeste 0 -- -- 70
2021-02-22 09:00:00 12.2 4 Noroeste 17 Noroeste 0 -- -- 72
2021-02-22 08:00:00 10 13 Noroeste 22 Noroeste 0 -- -- 75
2021-02-22 07:00:00 9.8 7 Noroeste 14 Noroeste 0 -- -- 71
2021-02-22 06:00:00 10.2 5 Noroeste 20 Noroeste 0 -- -- 75
2021-02-22 05:00:00 9.7 8 Noroeste 23 Oeste 0 -- -- 70
2021-02-22 04:00:00 9.2 14 Noroeste 29 Noroeste 0 -- -- 79
2021-02-22 03:00:00 9.4 12 Noroeste 23 Noroeste 0 -- -- 70
2021-02-22 02:00:00 9 9 Noroeste 29 Noroeste 0 -- -- 97
2021-02-22 01:00:00 9.2 14 Noroeste 23 Oeste 0 -- -- 95
2021-02-22 00:00:00 8.7 6 Noroeste 13 Noroeste 0 -- -- 98
2021-02-21 23:00:00 8.9 3 Oeste 17 Noroeste 0 -- -- 99
2021-02-21 22:00:00 8.9 6 Norte 33 Noroeste 0 -- -- 97
2021-02-21 21:00:00 9.5 21 Noroeste 34 Noroeste 0 -- -- 97
2021-02-21 20:00:00 9.4 14 Noroeste 26 Noroeste 0 -- -- 95
2021-02-21 19:00:00 10 3 Oeste 19 Noroeste 0 -- -- 86
2021-02-21 18:00:00 11.2 10 Noroeste 23 Noroeste 0 -- -- 86
2021-02-21 17:00:00 14.1 4 Sur 24 Noroeste 0 -- -- 73
2021-02-21 16:00:00 14.1 8 Noroeste 20 Noroeste 0 -- -- 73
2021-02-21 15:00:00 14.7 5 Noroeste 20 Noroeste 0 -- -- 68
2021-02-21 14:00:00 14.8 10 Noroeste 27 Oeste 0 -- -- 65
2021-02-21 13:00:00 13.9 7 Noroeste 26 Oeste 0 -- -- 71
2021-02-21 12:00:00 12.5 10 Oeste 26 Noroeste 0 -- -- 84
2021-02-21 11:00:00 11.6 14 Noroeste 29 Noroeste 0 -- -- 97
2021-02-21 10:00:00 9.9 14 Noroeste 27 Noroeste 0 -- -- 100
2021-02-21 09:00:00 9.6 12 Noroeste 38 Noroeste 0 -- -- 100
2021-02-21 08:00:00 8.8 16 Noroeste 41 Noroeste 0 -- -- 100
2021-02-21 07:00:00 9 24 Noroeste 48 Noroeste 0 -- -- 100
2021-02-21 06:00:00 9.2 23 Noroeste 50 Noroeste 0.2 -- -- 100
2021-02-21 05:00:00 9 23 Noroeste 57 Noroeste 0 -- -- 100
2021-02-21 04:00:00 9.3 23 Noroeste 56 Noroeste 0 -- -- 100
2021-02-21 03:00:00 9.9 22 Noroeste 48 Noroeste 0.4 -- -- 100
2021-02-21 02:00:00 10.1 22 Noroeste 51 Noroeste 0.8 -- -- 100
2021-02-21 01:00:00 10.6 27 Noroeste 59 Norte 4.2 -- -- 100
2021-02-21 00:00:00 11.1 31 Noroeste 69 Noroeste 3 -- -- 100
2021-02-20 23:00:00 12.3 23 Noroeste 64 Noroeste 1.4 -- -- 100
2021-02-20 22:00:00 12.5 19 Noroeste 51 Noroeste 8.2 -- -- 100
2021-02-20 21:00:00 12.7 15 Noroeste 61 Sudoeste 3.2 -- -- 99
2021-02-20 20:00:00 13.5 20 Noroeste 50 Oeste 0 -- -- 94
2021-02-20 19:00:00 13.9 22 Noroeste 53 Noroeste 0 -- -- 87
2021-02-20 18:00:00 14.2 29 Noroeste 67 Noroeste 0 -- -- 85
2021-02-20 17:00:00 14.4 27 Noroeste 58 Noroeste 0 -- -- 86
2021-02-20 16:00:00 15 18 Noroeste 49 Norte 0 -- -- 78
2021-02-20 15:00:00 15.7 11 Oeste 34 Noroeste 0 -- -- 66
2021-02-20 14:00:00 19.6 8 Oeste 20 Oeste 0 -- -- 56
2021-02-20 13:00:00 19.3 8 Oeste 28 Sudoeste 0 -- -- 35
2021-02-20 12:00:00 17.9 8 Sudoeste 21 Oeste 0 -- -- 48
2021-02-20 11:00:00 14.2 10 Noroeste 24 Oeste 0 -- -- 47
2021-02-20 10:00:00 16.1 4 Noroeste 17 Este 0 -- -- 38
2021-02-20 09:00:00 10.7 4 Oeste 15 Sudoeste 0 -- -- 59
2021-02-20 08:00:00 10.7 3 Nordeste 15 Norte 0 -- -- 47
2021-02-20 07:00:00 9.5 8 Este 16 Este 0 -- -- 67
2021-02-20 06:00:00 8.8 7 Este 10 Sudeste 0 -- -- 65
2021-02-20 05:00:00 7.8 3 Nordeste 13 Este 0 -- -- 66
2021-02-20 04:00:00 7.9 7 Este 14 Noroeste 0 -- -- 68
2021-02-20 03:00:00 9.1 7 Norte 18 Norte 0 -- -- 69
2021-02-20 02:00:00 8.4 3 Oeste 13 Noroeste 0 -- -- 80
2021-02-20 01:00:00 8.6 4 Noroeste 14 Sudeste 0 -- -- 89
2021-02-20 00:00:00 9.4 3 Sur 18 Noroeste 0 -- -- 67
2021-02-19 23:00:00 9.4 8 Noroeste 12 Noroeste 0 -- -- 70
2021-02-19 22:00:00 9.7 9 Noroeste 13 Noroeste 0 -- -- 67
2021-02-19 21:00:00 10.3 6 Noroeste 13 Norte 0 -- -- 73
2021-02-19 20:00:00 10.4 4 Noroeste 12 Noroeste 0 -- -- 85
2021-02-19 19:00:00 11.7 3 Noroeste 8 Noroeste 0 -- -- 88
2021-02-19 18:00:00 12.9 2 Este 14 Sudeste 0 -- -- 73
2021-02-19 17:00:00 17.9 7 Sudeste 14 Sudeste 0 -- -- 54
2021-02-19 16:00:00 19.3 8 Sudeste 16 Sudeste 0 -- -- 43
2021-02-19 15:00:00 20.6 10 Sur 19 Sur 0 -- -- 39
2021-02-19 14:00:00 20.5 9 Sur 24 Sudeste 0 -- -- 38
2021-02-19 13:00:00 19.8 11 Sur 22 Sudeste 0 -- -- 37
2021-02-19 12:00:00 18.7 9 Sudeste 15 Sur 0 -- -- 47
2021-02-19 11:00:00 16.9 3 Oeste 12 Sudeste 0 -- -- 32
2021-02-19 10:00:00 15.9 6 Sudeste 11 Este 0 -- -- 34
2021-02-19 09:00:00 13.7 4 Sudeste 11 Este 0 -- -- 33
2021-02-19 08:00:00 8.4 7 Sudeste 14 Sudeste 0 -- -- 41
2021-02-19 07:00:00 8 9 Sudeste 14 Sudeste 0 -- -- 47
2021-02-19 06:00:00 8 6 Sudeste 9 Sudeste 0 -- -- 47
2021-02-19 05:00:00 8 5 Este 13 Sudeste 0 -- -- 54
2021-02-19 04:00:00 8.5 4 Este 19 Sudeste 0 -- -- 44
2021-02-19 03:00:00 9.2 11 Sudeste 20 Este 0 -- -- 46
2021-02-19 02:00:00 10 6 Este 13 Este 0 -- -- 32
2021-02-19 01:00:00 10.6 6 Este 16 Este 0 -- -- 30
2021-02-19 00:00:00 8.4 3 Sudeste 7 Este 0 -- -- 49
2021-02-18 23:00:00 9 2 Este 12 Norte 0 -- -- 45
2021-02-18 22:00:00 10.5 8 Norte 11 Norte 0 -- -- 36
2021-02-18 21:00:00 8.6 4 Nordeste 5 Nordeste 0 -- -- 50
2021-02-18 20:00:00 8.9 2 Sudeste 15 Noroeste 0 -- -- 56
2021-02-18 19:00:00 10.5 5 Noroeste 23 Norte 0 -- -- 54
2021-02-18 18:00:00 12.3 9 Noroeste 20 Oeste 0 -- -- 83
2021-02-18 17:00:00 15.1 9 Noroeste 18 Oeste 0 -- -- 70
2021-02-18 16:00:00 16.4 7 Sudoeste 20 Noroeste 0 -- -- 67
2021-02-18 15:00:00 19 4 Sur 13 Oeste 0 -- -- 54
2021-02-18 14:00:00 18.8 5 Sudeste 14 Sudeste 0 -- -- 53
2021-02-18 13:00:00 18.1 9 Sur 18 Sudeste 0 -- -- 56
2021-02-18 12:00:00 19.4 12 Sudeste 18 Sur 0 -- -- 58
2021-02-18 11:00:00 16.3 9 Sudeste 17 Sudeste 0 -- -- 64
2021-02-18 10:00:00 14.7 13 Este 23 Este 0 -- -- 63
2021-02-18 09:00:00 11.2 8 Nordeste 17 Este 0 -- -- 51
2021-02-18 08:00:00 9.2 9 Sudeste 28 Este 0 -- -- 67
2021-02-18 07:00:00 10.1 16 Este 28 Este 0 -- -- 48
2021-02-18 06:00:00 8.9 12 Este 19 Este 0 -- -- 61
2021-02-18 05:00:00 8.1 4 Este 17 Nordeste 0 -- -- 41
2021-02-18 04:00:00 8.2 7 Norte 12 Norte 0 -- -- 37
2021-02-18 03:00:00 9.2 7 Este 21 Este 0 -- -- 40
2021-02-18 02:00:00 7.3 4 Oeste 13 Sur 0 -- -- 54
2021-02-18 01:00:00 6.2 4 Sudeste 11 Este 0 -- -- 88
2021-02-18 00:00:00 6.1 7 Sudeste 12 Sudeste 0 -- -- 95
2021-02-17 23:00:00 6.9 0 Calma 6 Este 0 -- -- 98
2021-02-17 22:00:00 7.4 4 Este 7 Sudeste 0 -- -- 97
2021-02-17 21:00:00 8.1 4 Sudeste 5 Sudeste 0 -- -- 95
2021-02-17 20:00:00 10 4 Noroeste 16 Noroeste 0 -- -- 93
2021-02-17 19:00:00 10.4 5 Noroeste 9 Oeste 0 -- -- 86
2021-02-17 18:00:00 12.4 4 Oeste 10 Noroeste 0 -- -- 77
2021-02-17 17:00:00 16 4 Sudeste 13 Sur 0 -- -- 61
2021-02-17 16:00:00 16.3 6 Oeste 21 Oeste 0 -- -- 48
2021-02-17 15:00:00 16.4 10 Oeste 23 Oeste 0 -- -- 47
2021-02-17 14:00:00 16.8 9 Oeste 24 Sudoeste 0 -- -- 46
2021-02-17 13:00:00 18 8 Sudeste 19 Sudeste 0 -- -- 51
2021-02-17 12:00:00 16.9 14 Sudeste 41 Sudeste 0 -- -- 59
2021-02-17 11:00:00 15.8 29 Sudeste 56 Sudeste 0 -- -- 61
2021-02-17 10:00:00 15 25 Sudeste 37 Sudeste 0 -- -- 74
2021-02-17 09:00:00 12.2 23 Sudeste 36 Sur 0 -- -- 92
2021-02-17 08:00:00 8.8 30 Sudeste 46 Sudeste 0 -- -- 99
2021-02-17 07:00:00 10 22 Sudeste 27 Sudeste 0 -- -- 98
2021-02-17 06:00:00 10.3 18 Sudeste 35 Sudeste 0 -- -- 98
2021-02-17 05:00:00 10 26 Sudeste 43 Sudeste 0 -- -- 96
2021-02-17 04:00:00 10.4 35 Sudeste 59 Sudeste 0 -- -- 94
2021-02-17 03:00:00 10.4 43 Sudeste 59 Este 0 -- -- 84
2021-02-17 02:00:00 10.7 36 Sudeste 58 Sudeste 0 -- -- 58
2021-02-17 01:00:00 11.3 40 Sudeste 57 Sudeste 0 -- -- 43
2021-02-17 00:00:00 11.2 31 Sudeste 46 Este 0 -- -- 39
2021-02-16 23:00:00 10.4 24 Sudeste 35 Sudeste 0 -- -- 53
2021-02-16 22:00:00 9.8 22 Sudeste 32 Sudeste 0 -- -- 69
2021-02-16 21:00:00 10.1 28 Sudeste 41 Sudeste 0 -- -- 61
2021-02-16 20:00:00 10.2 30 Sudeste 57 Este 0 -- -- 58
2021-02-16 19:00:00 10.6 37 Sudeste 51 Sudeste 0 -- -- 60
2021-02-16 18:00:00 11.5 17 Sudeste 32 Sudeste 0 -- -- 75
2021-02-16 17:00:00 15.4 12 Sur 28 Sudeste 0 -- -- 59
2021-02-16 16:00:00 17.4 14 Sudeste 29 Sudeste 0 -- -- 53
2021-02-16 15:00:00 18.5 15 Sur 30 Sur 0 -- -- 55
2021-02-16 14:00:00 19.1 17 Sur 37 Sudeste 0 -- -- 55
2021-02-16 13:00:00 18.1 17 Sur 39 Sur 0 -- -- 49
2021-02-16 12:00:00 18.5 14 Sur 28 Sur 0 -- -- 51
2021-02-16 11:00:00 16 19 Sudeste 36 Sudeste 0 -- -- 58
2021-02-16 10:00:00 14.7 18 Sudeste 37 Sudeste 0 -- -- 61
2021-02-16 09:00:00 12.7 28 Sudeste 44 Sudeste 0 -- -- 67
2021-02-16 08:00:00 11.9 28 Sudeste 53 Sudeste 0 -- -- 56
2021-02-16 07:00:00 12.8 45 Sudeste 64 Este 0 -- -- 39
2021-02-16 06:00:00 13.1 44 Sudeste 67 Sudeste 0 -- -- 38
2021-02-16 05:00:00 13 31 Sudeste 51 Sudeste 0 -- -- 44
2021-02-16 04:00:00 13.3 32 Sudeste 51 Este 0 -- -- 45
2021-02-16 03:00:00 13.6 26 Sudeste 51 Este 0 -- -- 48
2021-02-16 02:00:00 14.6 38 Sudeste 62 Sudeste 0 -- -- 36
2021-02-16 01:00:00 14.7 37 Sudeste 57 Sudeste 0 -- -- 38
2021-02-16 00:00:00 14.5 43 Sudeste 54 Sudeste 0 -- -- 40
2021-02-15 23:00:00 13.9 32 Sudeste 45 Este 0 -- -- 39
2021-02-15 22:00:00 14.6 33 Sudeste 46 Sudeste 0 -- -- 35
2021-02-15 21:00:00 14.1 31 Sudeste 40 Sudeste 0 -- -- 41
2021-02-15 20:00:00 13.4 18 Sudeste 23 Sudeste 0 -- -- 48
2021-02-15 19:00:00 13.7 11 Sudeste 14 Sudeste 0 -- -- 50
2021-02-15 18:00:00 15.9 9 Sur 17 Sur 0 -- -- 42
2021-02-15 17:00:00 19.6 8 Sur 27 Sudeste 0 -- -- 39
2021-02-15 16:00:00 20.7 16 Sudeste 32 Sudeste 0 -- -- 37
2021-02-15 15:00:00 22 9 Sur 28 Sur 0 -- -- 33
2021-02-15 14:00:00 21.7 7 Sudoeste 29 Sur 0 -- -- 39
2021-02-15 13:00:00 20.9 10 Sur 24 Sudeste 0 -- -- 42
2021-02-15 12:00:00 20 19 Sudeste 51 Sudeste 0 -- -- 46
2021-02-15 11:00:00 21.4 26 Sudeste 38 Sudeste 0 -- -- 38
2021-02-15 10:00:00 20.7 15 Sudeste 20 Este 0 -- -- 41
2021-02-15 09:00:00 17.2 10 Sudeste 19 Sur 0 -- -- 49
2021-02-15 08:00:00 13.2 5 Sur 21 Sudeste 0 -- -- 44
2021-02-15 07:00:00 13.3 12 Sudeste 32 Sudeste 0 -- -- 46
2021-02-15 06:00:00 15.1 26 Sudeste 39 Sudeste 0 -- -- 36
2021-02-15 05:00:00 14.7 20 Este 27 Este 0 -- -- 36
2021-02-15 04:00:00 14.3 18 Este 24 Este 0 -- -- 38
2021-02-15 03:00:00 12.7 14 Este 27 Sudeste 0 -- -- 44
2021-02-15 02:00:00 14.3 23 Sudeste 29 Este 0 -- -- 39
2021-02-15 01:00:00 12.7 17 Sudeste 24 Sudeste 0 -- -- 43
2021-02-15 00:00:00 12.6 14 Sudeste 18 Sudeste 0 -- -- 46
2021-02-14 23:00:00 11.4 11 Sudeste 15 Sudeste 0 -- -- 40
2021-02-14 22:00:00 12.3 12 Sudeste 18 Este 0 -- -- 40
2021-02-14 21:00:00 13 13 Este 24 Este 0 -- -- 34
2021-02-14 20:00:00 13 10 Este 21 Este 0 -- -- 34
2021-02-14 19:00:00 13.3 14 Este 21 Este 0 -- -- 36
2021-02-14 18:00:00 13.8 9 Este 19 Nordeste 0 -- -- 60
2021-02-14 17:00:00 17.5 12 Este 23 Sudeste 0 -- -- 56
2021-02-14 16:00:00 19.2 14 Sudeste 28 Este 0 -- -- 63
2021-02-14 15:00:00 19.6 10 Sudeste 22 Sudeste 0 -- -- 71
2021-02-14 14:00:00 20.3 12 Sudeste 18 Sudeste 0 -- -- 68
2021-02-14 13:00:00 20.5 10 Sudeste 23 Sudeste 0 -- -- 67
2021-02-14 12:00:00 21.3 16 Sudeste 30 Sudeste 0 -- -- 48
2021-02-14 11:00:00 19.7 10 Sudeste 32 Este 0 -- -- 53
2021-02-14 10:00:00 18.6 12 Este 17 Sudeste -- -- -- 50
2021-02-14 09:00:00 13 4 Sudeste 10 Noroeste 0 -- -- 62
2021-02-14 08:00:00 9.1 4 Noroeste 8 Noroeste 0 -- -- 67
2021-02-14 07:00:00 9.7 4 Nordeste 22 Sudeste 0 -- -- 59
2021-02-14 06:00:00 12.6 9 Este 25 Este 0 -- -- 39
2021-02-14 05:00:00 9 4 Noroeste 8 Noroeste 0 -- -- 64
2021-02-14 04:00:00 9.5 4 Noroeste 10 Noroeste 0 -- -- 60
2021-02-14 03:00:00 8.7 3 Oeste 16 Este 0 -- -- 72
2021-02-14 02:00:00 10.1 7 Este 15 Este 0 -- -- 60
2021-02-14 01:00:00 9.3 3 Sudeste 10 Este 0 -- -- 62
2021-02-14 00:00:00 8.9 3 Oeste 7 Oeste 0 -- -- 67
2021-02-13 23:00:00 8.5 3 Oeste 9 Sudeste 0 -- -- 73
2021-02-13 22:00:00 8.1 2 Noroeste 27 Norte 0 -- -- 89
2021-02-13 21:00:00 9.8 6 Noroeste 35 Norte 0 -- -- 91
2021-02-13 20:00:00 9.9 24 Norte 41 Norte 0 -- -- 99
2021-02-13 19:00:00 10.1 22 Norte 41 Norte 0 -- -- 97
2021-02-13 18:00:00 10.9 21 Norte 35 Norte 0 -- -- 92
2021-02-13 17:00:00 14 13 Norte 26 Norte 0 -- -- 80
2021-02-13 16:00:00 15.7 9 Norte 19 Norte 0 -- -- 66
2021-02-13 15:00:00 18.1 4 Sur 19 Norte 0 -- -- 61
2021-02-13 14:00:00 16.7 9 Nordeste 20 Norte 0 -- -- 63
2021-02-13 13:00:00 17.6 10 Este 22 Norte 0 -- -- 71
2021-02-13 12:00:00 15 10 Nordeste 24 Nordeste 0 -- -- 78
2021-02-13 07:00:00 10.7 6 Sur 21 Sudeste 0 -- -- 100
2021-02-13 06:00:00 10.2 3 Oeste 12 Oeste 0 -- -- 100
2021-02-13 05:00:00 10.3 4 Oeste 17 Sur 0 -- -- 100
2021-02-13 04:00:00 10.1 4 Oeste 26 Sudeste 0 -- -- 100
2021-02-13 03:00:00 10.4 8 Sudoeste 28 Este 0 -- -- 100
2021-02-13 02:00:00 10.7 9 Noroeste 32 Este 0 -- -- 100
2021-02-13 01:00:00 11 10 Norte 33 Noroeste 0 -- -- 100
2021-02-13 00:00:00 11.1 10 Noroeste 41 Noroeste 0 -- -- 100
2021-02-12 23:00:00 11.1 16 Norte 41 Norte 0 -- -- 100
2021-02-12 22:00:00 11.2 13 Norte 33 Nordeste 0 -- -- 100
2021-02-12 21:00:00 11.4 9 Norte 30 Noroeste 0 -- -- 100
2021-02-12 20:00:00 11.5 6 Nordeste 34 Noroeste 0 -- -- 99
2021-02-12 19:00:00 11.3 8 Norte 27 Noroeste 0 -- -- 97
2021-02-12 18:00:00 11.5 8 Nordeste 31 Noroeste 0 -- -- 94
2021-02-12 17:00:00 12.2 10 Norte 27 Nordeste 0 -- -- 91
2021-02-12 16:00:00 13.1 8 Norte 26 Este 0 -- -- 86
2021-02-12 15:00:00 13.3 5 Norte 23 Noroeste 0 -- -- 84
2021-02-12 14:00:00 14.5 10 Norte 34 Noroeste 0 -- -- 84
2021-02-12 13:00:00 14.5 8 Norte 32 Este 0.2 -- -- 85
2021-02-12 12:00:00 14.2 9 Este 29 Este 0 -- -- 92
2021-02-12 11:00:00 12.2 6 Este 28 Nordeste 0 -- -- 97
2021-02-12 10:00:00 11.7 13 Norte 27 Norte 0 -- -- 99
2021-02-12 09:00:00 11 5 Noroeste 29 Noroeste 0 -- -- 99
2021-02-12 08:00:00 10.6 8 Norte 18 Noroeste 0 -- -- 97
2021-02-12 07:00:00 10.6 8 Norte 30 Nordeste 0 -- -- 97
2021-02-12 06:00:00 10.7 6 Nordeste 31 Este 0 -- -- 98
2021-02-12 05:00:00 10.7 8 Norte 22 Este 0 -- -- 99
2021-02-12 04:00:00 10.7 10 Nordeste 27 Nordeste 0 -- -- 99
2021-02-12 03:00:00 10.8 10 Norte 28 Nordeste 0 -- -- 99
2021-02-12 02:00:00 11 5 Nordeste 36 Este 0 -- -- 99
2021-02-12 01:00:00 11 8 Norte 35 Nordeste 0 -- -- 99
2021-02-12 00:00:00 10.9 7 Noroeste 33 Nordeste 0 -- -- 99
2021-02-11 23:00:00 11.2 9 Noroeste 28 Noroeste 0 -- -- 99
2021-02-11 22:00:00 11.2 8 Noroeste 27 Oeste 0 -- -- 98
2021-02-11 21:00:00 11.3 9 Norte 25 Norte 0 -- -- 98
2021-02-11 20:00:00 11.1 7 Norte 29 Oeste 0 -- -- 96
2021-02-11 19:00:00 11.1 4 Oeste 19 Noroeste 0 -- -- 95
2021-02-11 18:00:00 11.6 6 Noroeste 25 Noroeste 0 -- -- 88
2021-02-11 17:00:00 14.1 7 Noroeste 24 Oeste 0 -- -- 80
2021-02-11 16:00:00 13.5 9 Norte 28 Nordeste 0 -- -- 84
2021-02-11 15:00:00 13.9 10 Norte 30 Noroeste 0 -- -- 86
2021-02-11 14:00:00 15 8 Norte 27 Noroeste 0 -- -- 78
2021-02-11 13:00:00 13.8 9 Noroeste 26 Norte 0 -- -- 81
2021-02-11 12:00:00 13.6 11 Norte 27 Norte 0 -- -- 83
2021-02-11 11:00:00 13.4 7 Norte 27 Norte 0 -- -- 84
2021-02-11 10:00:00 11.5 7 Norte 14 Norte 0 -- -- 98
2021-02-11 09:00:00 10.7 5 Norte 19 Noroeste 0 -- -- 100
2021-02-11 08:00:00 10.2 9 Noroeste 20 Norte 0 -- -- 100
2021-02-11 07:00:00 10 12 Noroeste 29 Noroeste 0 -- -- 100
2021-02-11 06:00:00 9.8 14 Noroeste 25 Noroeste 0 -- -- 100
2021-02-11 05:00:00 9.8 10 Noroeste 19 Noroeste 0 -- -- 100
2021-02-11 04:00:00 9.6 12 Noroeste 22 Noroeste 0 -- -- 99
2021-02-11 03:00:00 9.9 9 Noroeste 24 Noroeste 0 -- -- 98
2021-02-11 02:00:00 10.3 8 Noroeste 22 Oeste 0 -- -- 97
2021-02-11 01:00:00 10.5 6 Noroeste 17 Noroeste 0 -- -- 96
2021-02-11 00:00:00 10.5 6 Noroeste 20 Noroeste 0 -- -- 93
2021-02-10 23:00:00 10.1 9 Noroeste 24 Noroeste 0 -- -- 91
2021-02-10 22:00:00 10.3 15 Noroeste 23 Noroeste 0 -- -- 90
2021-02-10 21:00:00 9.5 6 Noroeste 12 Oeste 0 -- -- 96
2021-02-10 20:00:00 9.7 3 Nordeste 11 Noroeste 0 -- -- 92
2021-02-10 19:00:00 11 0 Calma 6 Sudeste 0 -- -- 91
2021-02-10 18:00:00 14 4 Sudeste 11 Sudeste 0 -- -- 89
2021-02-10 17:00:00 14.7 6 Sudeste 12 Sudeste 0 -- -- 87
2021-02-10 16:00:00 14.3 4 Sudeste 13 Sudeste 0 -- -- 85
2021-02-10 15:00:00 17.3 6 Sudeste 14 Sudeste 0 -- -- 75
2021-02-10 14:00:00 15 8 Sudeste 16 Sudeste 0 -- -- 86
2021-02-10 13:00:00 15.6 4 Sur 16 Sudeste 0 -- -- 79
2021-02-10 12:00:00 18.7 11 Sudeste 17 Sudeste 0 -- -- 71
2021-02-10 11:00:00 16.2 6 Sur 15 Sudeste 0 -- -- 74
2021-02-10 10:00:00 14.3 8 Sudeste 13 Sudeste 0 -- -- 87
2021-02-10 09:00:00 11.1 5 Noroeste 13 Norte 0 -- -- 97
2021-02-10 08:00:00 9.3 7 Norte 13 Norte 0 -- -- 100
2021-02-10 07:00:00 9.2 9 Norte 11 Noroeste 0 -- -- 100
2021-02-10 06:00:00 8.4 4 Noroeste 9 Noroeste 0 -- -- 100
2021-02-10 05:00:00 8.4 0 Calma 14 Norte 0 -- -- 99
2021-02-10 04:00:00 9.5 8 Norte 14 Norte 0 -- -- 99
2021-02-10 03:00:00 8.9 6 Norte 10 Norte 0 -- -- 100
2021-02-10 02:00:00 8.7 3 Norte 5 Norte 0 -- -- 100
2021-02-10 01:00:00 9.4 2 Oeste 18 Noroeste 0 -- -- 100
2021-02-10 00:00:00 9.8 13 Noroeste 17 Noroeste 0 -- -- 100
2021-02-09 23:00:00 10.3 6 Noroeste 13 Noroeste 0 -- -- 100
2021-02-09 22:00:00 10 2 Sudoeste 23 Noroeste 0 -- -- 100
2021-02-09 21:00:00 10.8 12 Noroeste 22 Noroeste 0 -- -- 100
2021-02-09 20:00:00 10.5 11 Noroeste 19 Noroeste 0 -- -- 99
2021-02-09 19:00:00 11.2 5 Noroeste 17 Noroeste 0 -- -- 96
2021-02-09 18:00:00 12.5 4 Norte 14 Nordeste 0 -- -- 90
2021-02-09 17:00:00 13.4 5 Oeste 13 Oeste 0 -- -- 87
2021-02-09 16:00:00 15 6 Sudeste 13 Sudeste 0 -- -- 84
2021-02-09 15:00:00 15.2 6 Sudeste 14 Sudeste 0 -- -- 83
2021-02-09 14:00:00 15.8 9 Sudeste 16 Sudeste 0 -- -- 80
2021-02-09 13:00:00 14.5 4 Oeste 17 Sudeste 0 -- -- 81
2021-02-09 12:00:00 16.8 9 Sur 19 Sudeste 0 -- -- 76
2021-02-09 11:00:00 13.5 8 Norte 24 Noroeste 0 -- -- 83
2021-02-09 10:00:00 12.6 6 Noroeste 17 Oeste 0 -- -- 84
2021-02-09 09:00:00 10.4 4 Noroeste 15 Noroeste 0 -- -- 96
2021-02-09 08:00:00 9.5 5 Noroeste 32 Noroeste 0 -- -- 98
2021-02-09 07:00:00 9.3 13 Noroeste 33 Noroeste 0 -- -- 99
2021-02-09 06:00:00 9.3 15 Noroeste 34 Oeste 0 -- -- 99
2021-02-09 05:00:00 9.2 20 Noroeste 32 Noroeste 0 -- -- 99
2021-02-09 04:00:00 9.1 16 Noroeste 27 Noroeste 0 -- -- 99
2021-02-09 03:00:00 9.1 10 Noroeste 33 Noroeste 0 -- -- 97
2021-02-09 02:00:00 9.3 9 Norte 25 Noroeste 0 -- -- 98
2021-02-09 01:00:00 9.5 8 Norte 39 Noroeste 0 -- -- 97
2021-02-09 00:00:00 10 19 Noroeste 36 Noroeste 0 -- -- 96
2021-02-08 23:00:00 10 22 Noroeste 43 Noroeste 0.2 -- -- 97
2021-02-08 22:00:00 10 20 Noroeste 37 Noroeste 0 -- -- 99
2021-02-08 21:00:00 10.2 10 Noroeste 26 Noroeste 0 -- -- 100
2021-02-08 20:00:00 10.1 11 Noroeste 28 Noroeste 0 -- -- 100
2021-02-08 19:00:00 10.2 17 Noroeste 30 Noroeste 0 -- -- 99
2021-02-08 18:00:00 11.4 7 Noroeste 17 Oeste 0 -- -- 94
2021-02-08 17:00:00 15.9 4 Este 10 Sudeste 0 -- -- 81
2021-02-08 16:00:00 15.1 4 Sudeste 14 Sur 0 -- -- 88
2021-02-08 15:00:00 16.1 4 Sudoeste 16 Noroeste 0 -- -- 79
2021-02-08 14:00:00 13.7 10 Noroeste 19 Norte 0 -- -- 84
2021-02-08 13:00:00 12.9 9 Noroeste 23 Norte 0 -- -- 94
2021-02-08 12:00:00 12.1 8 Noroeste 24 Norte 0 -- -- 100
2021-02-08 11:00:00 11.1 7 Noroeste 18 Noroeste 0 -- -- 100
2021-02-08 10:00:00 10.5 4 Noroeste 22 Noroeste 0 -- -- 100
2021-02-08 09:00:00 9.6 14 Noroeste 26 Noroeste 0 -- -- 100
2021-02-08 08:00:00 9 10 Noroeste 28 Oeste 0.2 -- -- 100
2021-02-08 07:00:00 9.2 17 Noroeste 31 Noroeste 0.2 -- -- 100
2021-02-08 06:00:00 9 25 Noroeste 35 Noroeste 0 -- -- 100
2021-02-08 05:00:00 9 21 Noroeste 37 Noroeste 0 -- -- 100
2021-02-08 04:00:00 8.9 25 Noroeste 36 Noroeste 0 -- -- 100
2021-02-08 03:00:00 8.8 28 Noroeste 39 Noroeste 0 -- -- 100
2021-02-08 02:00:00 8.9 28 Noroeste 38 Noroeste 0 -- -- 100
2021-02-08 01:00:00 9.3 24 Noroeste 45 Noroeste 0 -- -- 100
2021-02-08 00:00:00 9.1 35 Noroeste 49 Noroeste 0 -- -- 100
2021-02-07 23:00:00 9.3 32 Noroeste 49 Noroeste 0 -- -- 100
2021-02-07 22:00:00 9.5 29 Noroeste 43 Noroeste 0 -- -- 100
2021-02-07 21:00:00 9.4 27 Noroeste 37 Noroeste 0 -- -- 100
2021-02-07 20:00:00 9.4 21 Noroeste 37 Noroeste 0 -- -- 100
2021-02-07 19:00:00 9.4 19 Noroeste 33 Noroeste 0 -- -- 100
2021-02-07 18:00:00 9.8 19 Noroeste 31 Noroeste 0 -- -- 100
2021-02-07 17:00:00 10.1 13 Noroeste 24 Noroeste 0 -- -- 100
2021-02-07 16:00:00 10.6 8 Noroeste 26 Noroeste 0 -- -- 99
2021-02-07 15:00:00 10.3 11 Noroeste 28 Noroeste 0.2 -- -- 99
2021-02-07 14:00:00 12.1 7 Noroeste 24 Noroeste 0 -- -- 98
2021-02-07 13:00:00 11.2 4 Oeste 15 Noroeste 0 -- -- 100
2021-02-07 12:00:00 10.4 4 Noroeste 26 Noroeste 0 -- -- 100
2021-02-07 11:00:00 9.8 8 Noroeste 22 Noroeste 0 -- -- 100
2021-02-07 10:00:00 9.3 9 Noroeste 25 Noroeste 0 -- -- 100
2021-02-07 09:00:00 9.3 8 Noroeste 25 Noroeste 0 -- -- 99
2021-02-07 08:00:00 8.6 10 Noroeste 27 Noroeste 0 -- -- 100
2021-02-07 07:00:00 8.7 11 Norte 27 Noroeste 0 -- -- 100
2021-02-07 06:00:00 8.7 13 Noroeste 33 Noroeste 0 -- -- 99
2021-02-07 05:00:00 8.6 16 Noroeste 42 Noroeste 0 -- -- 98
2021-02-07 04:00:00 7.9 18 Noroeste 36 Noroeste 0 -- -- 97
2021-02-07 03:00:00 7.9 18 Noroeste 39 Noroeste 0 -- -- 98
2021-02-07 02:00:00 8.4 19 Noroeste 41 Norte 0 -- -- 100
2021-02-07 01:00:00 8.1 22 Noroeste 50 Norte 0 -- -- 100
2021-02-07 00:00:00 8.6 18 Noroeste 45 Noroeste 1.4 -- -- 100
2021-02-06 23:00:00 8.5 15 Noroeste 35 Noroeste 0 -- -- 97
2021-02-06 22:00:00 7.9 21 Noroeste 45 Noroeste 0 -- -- 97
2021-02-06 21:00:00 8 22 Noroeste 46 Noroeste 0.8 -- -- 99
2021-02-06 20:00:00 8.5 19 Noroeste 49 Norte 0 -- -- 100
2021-02-06 19:00:00 8.6 19 Noroeste 48 Noroeste 0.4 -- -- 100
2021-02-06 18:00:00 8.8 26 Noroeste 48 Noroeste 0 -- -- 99
2021-02-06 17:00:00 9 27 Noroeste 53 Noroeste 0 -- -- 100
2021-02-06 16:00:00 8.8 28 Noroeste 59 Norte 0.6 -- -- 97
2021-02-06 15:00:00 9.8 24 Noroeste 53 Noroeste 0 -- -- 95
2021-02-06 14:00:00 10.2 24 Noroeste 46 Noroeste 0 -- -- 93
2021-02-06 13:00:00 9.5 24 Noroeste 58 Oeste 0 -- -- 98
2021-02-06 12:00:00 9.3 22 Noroeste 51 Noroeste 0 -- -- 100
2021-02-06 11:00:00 8.7 23 Noroeste 47 Noroeste 0 -- -- 100
2021-02-06 10:00:00 8.2 27 Noroeste 52 Noroeste 0.2 -- -- 100
2021-02-06 09:00:00 8 26 Noroeste 53 Noroeste 0.2 -- -- 100
2021-02-06 08:00:00 7.7 20 Norte 51 Noroeste 0.2 -- -- 100
2021-02-06 07:00:00 7.6 22 Noroeste 44 Noroeste 0.8 -- -- 100
2021-02-06 06:00:00 7.3 19 Noroeste 45 Noroeste 0.6 -- -- 100
2021-02-06 05:00:00 7.3 18 Noroeste 52 Noroeste 0.8 -- -- 100
2021-02-06 04:00:00 7 22 Noroeste 47 Noroeste 0 -- -- 100
2021-02-06 03:00:00 6.8 23 Noroeste 47 Noroeste 0 -- -- 100
2021-02-06 02:00:00 6.6 24 Noroeste 49 Noroeste 0 -- -- 100
2021-02-06 01:00:00 6.7 23 Noroeste 56 Noroeste 0.4 -- -- 100
2021-02-06 00:00:00 6.8 23 Noroeste 51 Noroeste 0 -- -- 100
2021-02-05 23:00:00 6.7 28 Noroeste 65 Oeste 2 -- -- 100
2021-02-05 22:00:00 6.9 25 Noroeste 51 Noroeste 0 -- -- 100
2021-02-05 21:00:00 6.3 25 Noroeste 49 Noroeste 4.6 -- -- 100
2021-02-05 20:00:00 6.6 20 Noroeste 46 Noroeste 0.2 -- -- 100
2021-02-05 19:00:00 6.3 18 Noroeste 44 Noroeste 1.4 -- -- 100
2021-02-05 18:00:00 6 14 Noroeste 44 Noroeste 10.2 -- -- 100
2021-02-05 17:00:00 6.3 19 Noroeste 41 Noroeste 3.6 -- -- 100
2021-02-05 16:00:00 6.7 5 Noroeste 42 Noroeste 4.8 -- -- 100
2021-02-05 15:00:00 7.1 13 Noroeste 48 Noroeste 0.6 -- -- 100
2021-02-05 14:00:00 6.9 18 Norte 45 Noroeste 0.4 -- -- 100
2021-02-05 13:00:00 6 19 Noroeste 39 Noroeste 5.4 -- -- 100
2021-02-05 12:00:00 6.5 16 Noroeste 37 Noroeste 1.4 -- -- 100
2021-02-05 11:00:00 6.5 19 Noroeste 40 Noroeste 0 -- -- 100
2021-02-05 10:00:00 6.3 16 Norte 50 Noroeste 3.2 -- -- 100
2021-02-05 09:00:00 5.8 18 Noroeste 44 Noroeste 7.6 -- -- 100
2021-02-05 08:00:00 5.7 14 Noroeste 42 Noroeste 2.8 -- -- 100
2021-02-05 07:00:00 5.6 13 Noroeste 36 Noroeste 10.4 -- -- 100
2021-02-05 06:00:00 5.8 8 Noroeste 39 Noroeste 2.6 -- -- 100
2021-02-05 05:00:00 5.7 22 Noroeste 45 Noroeste 7.2 -- -- 100
2021-02-05 04:00:00 5.9 12 Noroeste 30 Oeste 0.2 -- -- 100
2021-02-05 03:00:00 5.8 14 Noroeste 40 Oeste 0 -- -- 100
2021-02-05 02:00:00 5.9 15 Noroeste 43 Noroeste 0 -- -- 100
2021-02-05 01:00:00 5.2 18 Noroeste 47 Noroeste 2.2 -- -- 100
2021-02-05 00:00:00 5.3 14 Noroeste 45 Noroeste 4.4 -- -- 97
2021-02-04 23:00:00 5.4 17 Noroeste 57 Noroeste 0 -- -- 98
2021-02-04 22:00:00 5.3 21 Noroeste 48 Noroeste 1 -- -- 100
2021-02-04 21:00:00 7.5 23 Noroeste 57 Noroeste 2.4 -- -- 100
2021-02-04 20:00:00 7.6 16 Noroeste 54 Noroeste 0.6 -- -- 100
2021-02-04 19:00:00 7.6 18 Noroeste 48 Noroeste 0 -- -- 100
2021-02-04 18:00:00 7.4 22 Noroeste 53 Norte 3.4 -- -- 100
2021-02-04 17:00:00 8.7 21 Noroeste 49 Noroeste 0.2 -- -- 94
2021-02-04 16:00:00 9.1 20 Noroeste 52 Noroeste 0 -- -- 96
2021-02-04 15:00:00 9.3 18 Noroeste 47 Oeste 0 -- -- 99
2021-02-04 14:00:00 9.1 20 Noroeste 44 Oeste 0 -- -- 100
2021-02-04 13:00:00 8.9 19 Noroeste 54 Noroeste 0.6 -- -- 100
2021-02-04 12:00:00 8.4 26 Noroeste 43 Noroeste 6 -- -- 100
2021-02-04 11:00:00 9.8 15 Oeste 46 Noroeste 1.6 -- -- 100
2021-02-04 10:00:00 9.1 22 Noroeste 40 Oeste 2.6 -- -- 100
2021-02-04 09:00:00 8.8 12 Noroeste 45 Noroeste 3.4 -- -- 100
2021-02-04 08:00:00 8.2 27 Noroeste 46 Noroeste 4.6 -- -- 100
2021-02-04 07:00:00 8.6 19 Noroeste 38 Oeste 3.8 -- -- 100
2021-02-04 06:00:00 9.3 19 Noroeste 36 Noroeste 4 -- -- 100
2021-02-04 05:00:00 9.8 16 Noroeste 34 Noroeste 3 -- -- 100
2021-02-04 04:00:00 10.2 13 Noroeste 34 Noroeste 3.4 -- -- 100
2021-02-04 03:00:00 10.4 18 Noroeste 30 Noroeste 4 -- -- 100
2021-02-04 02:00:00 10 9 Noroeste 30 Oeste 0.2 -- -- 100
2021-02-04 01:00:00 9.9 15 Noroeste 29 Noroeste 0 -- -- 100
2021-02-04 00:00:00 10 23 Noroeste 45 Noroeste 0 -- -- 100
2021-02-03 23:00:00 10 27 Noroeste 44 Noroeste 0 -- -- 100
2021-02-03 22:00:00 10.1 22 Noroeste 41 Noroeste 0 -- -- 99
2021-02-03 21:00:00 10 23 Noroeste 43 Noroeste 0 -- -- 98
2021-02-03 20:00:00 10.1 21 Noroeste 35 Noroeste 0 -- -- 98
2021-02-03 19:00:00 10.5 14 Noroeste 26 Noroeste 0 -- -- 96
2021-02-03 18:00:00 11.1 5 Noroeste 20 Noroeste 0 -- -- 92
2021-02-03 17:00:00 12.9 10 Noroeste 22 Oeste 0 -- -- 84
2021-02-03 16:00:00 14.2 6 Noroeste 22 Oeste 0 -- -- 78
2021-02-03 15:00:00 12.1 11 Noroeste 21 Norte 0 -- -- 90
2021-02-03 14:00:00 14 6 Nordeste 32 Sudeste 0 -- -- 81
2021-02-03 13:00:00 16.4 6 Oeste 16 Sudeste 0 -- -- 72
2021-02-03 12:00:00 17.8 10 Sudeste 20 Sur 0 -- -- 70
2021-02-03 11:00:00 15.4 8 Sur 14 Sudeste 0 -- -- 76
2021-02-03 10:00:00 14.3 4 Sur 11 Sur 0 -- -- 77
2021-02-03 09:00:00 13.4 4 Sudeste 6 Sudeste 0 -- -- 76
2021-02-03 08:00:00 9.5 2 Este 10 Nordeste 0 -- -- 74
2021-02-03 07:00:00 10.5 7 Este 10 Este 0 -- -- 61
2021-02-03 06:00:00 11.3 5 Este 7 Este 0 -- -- 50
2021-02-03 05:00:00 11 3 Este 8 Nordeste 0 -- -- 56
2021-02-03 04:00:00 13 4 Este 7 Nordeste 0 -- -- 47
2021-02-03 03:00:00 12 0 Calma 8 Este 0 -- -- 44
2021-02-03 02:00:00 13 4 Este 9 Este 0 -- -- 40
2021-02-03 01:00:00 12.2 0 Calma 7 Sudeste 0 -- -- 49
2021-02-03 00:00:00 12.4 3 Sudeste 5 Este 0 -- -- 44
2021-02-02 23:00:00 13.2 3 Este 6 Nordeste 0 -- -- 38
2021-02-02 22:00:00 13.1 3 Este 6 Nordeste 0 -- -- 38
2021-02-02 21:00:00 12.6 3 Noroeste 14 Noroeste 0 -- -- 44
2021-02-02 20:00:00 13 3 Norte 22 Noroeste 0 -- -- 64
2021-02-02 19:00:00 14.9 7 Noroeste 22 Noroeste 0 -- -- 48
2021-02-02 18:00:00 17.5 7 Noroeste 19 Noroeste 0 -- -- 37
2021-02-02 17:00:00 19.7 9 Oeste 19 Oeste 0 -- -- 40
2021-02-02 16:00:00 21.9 3 Sudoeste 12 Sudoeste 0 -- -- 59
2021-02-02 15:00:00 21.7 5 Sudoeste 12 Sur 0 -- -- 60
2021-02-02 14:00:00 22.9 7 Sudeste 14 Sudeste 0 -- -- 52
2021-02-02 13:00:00 20.6 10 Sudeste 19 Sudeste 0 -- -- 59
2021-02-02 12:00:00 21.7 10 Sudeste 20 Sudeste 0 -- -- 60
2021-02-02 11:00:00 23.3 15 Sudeste 21 Sudeste 0 -- -- 42
2021-02-02 10:00:00 22.1 13 Sudeste 18 Este 0 -- -- 30
2021-02-02 09:00:00 18.7 10 Sudeste 24 Este 0 -- -- 25
2021-02-02 08:00:00 14.4 13 Este 23 Este 0 -- -- 24
2021-02-02 07:00:00 14.4 11 Este 27 Este 0 -- -- 27
2021-02-02 06:00:00 15.1 11 Este 29 Este 0 -- -- 22
2021-02-02 05:00:00 16.7 14 Este 25 Este 0 -- -- 19
2021-02-02 04:00:00 16 7 Este 25 Este 0 -- -- 28
2021-02-02 03:00:00 12.9 8 Este 19 Este 0 -- -- 44
2021-02-02 02:00:00 10.7 5 Nordeste 17 Sudeste 0 -- -- 62
2021-02-02 01:00:00 10.5 3 Sur 16 Sudeste 0 -- -- 78
2021-02-02 00:00:00 11.6 3 Noroeste 26 Sudeste 0 -- -- 73
2021-02-01 23:00:00 12.1 4 Nordeste 32 Este 0 -- -- 65
2021-02-01 22:00:00 13.5 5 Sudeste 23 Sur 0 -- -- 64
2021-02-01 21:00:00 14.1 9 Este 27 Nordeste 0 -- -- 60
2021-02-01 20:00:00 14.6 10 Este 31 Sudeste 0 -- -- 56
2021-02-01 19:00:00 14.6 13 Este 31 Sudeste 0 -- -- 59
2021-02-01 18:00:00 14.6 10 Sudeste 23 Este 0 -- -- 74
2021-02-01 17:00:00 18.1 6 Sur 18 Sur 0 -- -- 61
2021-02-01 16:00:00 20.4 13 Sudeste 25 Sudeste 0 -- -- 57
2021-02-01 15:00:00 21.7 12 Sur 21 Sudeste 0 -- -- 58
2021-02-01 14:00:00 22.2 13 Sur 25 Sur 0 -- -- 58
2021-02-01 13:00:00 22.5 13 Sudeste 25 Sudeste 0 -- -- 60
2021-02-01 12:00:00 22.4 19 Sudeste 28 Este 0 -- -- 59
2021-02-01 11:00:00 20.2 12 Sudeste 20 Sudeste 0 -- -- 67
2021-02-01 10:00:00 19.5 15 Sudeste 42 Nordeste 0 -- -- 56
2021-02-01 09:00:00 16.1 27 Este 55 Este 0 -- -- 57
2021-02-01 08:00:00 14.9 30 Este 51 Este 0 -- -- 57
2021-02-01 07:00:00 14.4 27 Este 51 Este 0 -- -- 57
2021-02-01 06:00:00 15.2 25 Este 45 Este 0 -- -- 54
2021-02-01 05:00:00 15.2 24 Este 42 Este 0 -- -- 54
2021-02-01 04:00:00 15.6 28 Este 48 Este 0 -- -- 52
2021-02-01 03:00:00 15.6 24 Este 48 Nordeste 0 -- -- 53
2021-02-01 02:00:00 15.6 30 Este 48 Este 0 -- -- 52
2021-02-01 01:00:00 15.8 9 Este 46 Este 0 -- -- 52
2021-02-01 00:00:00 15.9 30 Este 49 Este 0 -- -- 52
2021-01-31 23:00:00 15.6 14 Este 43 Este 0 -- -- 55
2021-01-31 22:00:00 15.2 8 Oeste 39 Nordeste 0 -- -- 56
2021-01-31 21:00:00 15.2 10 Oeste 41 Norte 0 -- -- 51
2021-01-31 20:00:00 15.5 14 Noroeste 39 Nordeste 0 -- -- 51
2021-01-31 19:00:00 15.2 8 Oeste 39 Nordeste 0 -- -- 53
2021-01-31 18:00:00 15.9 15 Norte 39 Nordeste 0 -- -- 46
2021-01-31 17:00:00 17.4 14 Norte 36 Nordeste 0 -- -- 38
2021-01-31 16:00:00 18.9 7 Sudoeste 32 Nordeste 0 -- -- 38
2021-01-31 15:00:00 18.7 8 Oeste 35 Nordeste 0 -- -- 37
2021-01-31 14:00:00 18.2 8 Oeste 37 Norte 0 -- -- 38
2021-01-31 13:00:00 17.1 27 Norte 45 Nordeste 0 -- -- 27
2021-01-31 12:00:00 15.3 15 Norte 36 Nordeste 0 -- -- 46
2021-01-31 11:00:00 15.5 9 Sudeste 47 Norte 0 -- -- 51
2021-01-31 10:00:00 12.9 27 Norte 48 Nordeste 0 -- -- 77
2021-01-31 09:00:00 11.4 28 Norte 47 Nordeste 0 -- -- 83
2021-01-31 08:00:00 11.3 26 Norte 45 Nordeste 0.2 -- -- 100
2021-01-31 07:00:00 11.8 22 Norte 36 Norte 0.4 -- -- 100
2021-01-31 06:00:00 12.1 18 Norte 38 Norte 0.6 -- -- 100
2021-01-31 05:00:00 12 18 Norte 40 Nordeste 0.4 -- -- 100
2021-01-31 04:00:00 12.2 14 Nordeste 36 Norte 0.4 -- -- 100
2021-01-31 03:00:00 11.8 11 Nordeste 33 Nordeste 0 -- -- 100
2021-01-31 02:00:00 11.8 12 Nordeste 31 Nordeste 0 -- -- 100
2021-01-31 01:00:00 11.5 9 Noroeste 29 Sudeste 0 -- -- 99
2021-01-31 00:00:00 10.9 12 Norte 40 Nordeste 0 -- -- 99